This is the latest recevied weather packets stored in our database for station/object KE4EST. If no packets are shown the sender has not sent any weather packets the latest 10 day(s).
| Time | Temp. | Humidity | Pressure | Rain* | Wind** | Luminosity | Snow |
|---|---|---|---|---|---|---|---|
| 1777765403 | 13.89° C | 43% | 1014.9 hPa | 0 mm | - | 12 W/m² | - |
| 1777765100 | 13.89° C | 42% | 1014.7 hPa | 0 mm | - | 14 W/m² | - |
| 1777764791 | 13.89° C | 41% | 1014.5 hPa | 0 mm | - | 16 W/m² | - |
| 1777764487 | 13.89° C | 43% | 1014.4 hPa | 0 mm | - | 17 W/m² | - |
| 1777764184 | 13.89° C | 43% | 1014.5 hPa | 0 mm | - | 17 W/m² | - |
| 1777761453 | 14.44° C | 40% | 1014.6 hPa | 0 mm | - | 28 W/m² | - |
| 1777761150 | 15° C | 41% | 1014.4 hPa | 0 mm | - | 27 W/m² | - |
| 1777760543 | 14.44° C | 38% | 1014.4 hPa | 0 mm | - | 34 W/m² | - |
| 1777760240 | 14.44° C | 40% | 1014.3 hPa | 0 mm | - | 34 W/m² | - |
| 1777759937 | 14.44° C | 39% | 1014.3 hPa | 0 mm | - | 50 W/m² | - |
| 1777759324 | 15° C | 38% | 1014.2 hPa | 0 mm | - | 50 W/m² | - |
| 1777758718 | 15° C | 37% | 1013.9 hPa | 0 mm | - | 44 W/m² | - |
| 1777757809 | 15.56° C | 36% | 1013.9 hPa | 0 mm | - | 97 W/m² | - |
| 1777757205 | 16.11° C | 36% | 1013.7 hPa | 0 mm | - | 195 W/m² | - |
| 1777756598 | 15.56° C | 37% | 1013.6 hPa | 0 mm | - | 60 W/m² | - |
| 1777756295 | 15.56° C | 38% | 1013.5 hPa | 0 mm | - | 73 W/m² | - |
| 1777755689 | 15° C | 39% | 1013.7 hPa | 0 mm | - | 93 W/m² | - |
| 1777754780 | 15.56° C | 35% | 1013.6 hPa | 0 mm | - | 118 W/m² | - |
| 1777754174 | 16.11° C | 35% | 1013.2 hPa | 0 mm | - | 498 W/m² | - |
| 1777753867 | 16.11° C | 33% | 1013.6 hPa | 0 mm | - | 512 W/m² | - |
| 1777753561 | 17.22° C | 37% | 1013.5 hPa | 0 mm | - | 518 W/m² | - |
| 1777753260 | 16.67° C | 36% | 1013.2 hPa | 0 mm | - | 533 W/m² | - |
| 1777752955 | 16.67° C | 35% | 1013.3 hPa | 0 mm | - | 529 W/m² | - |
| 1777752652 | 16.67° C | 35% | 1013.3 hPa | 0 mm | - | 542 W/m² | - |
| 1777752348 | 16.67° C | 37% | 1013.5 hPa | 0 mm | - | 572 W/m² | - |
* Rain latest hour (hover to see other rain measurements)
** Current wind speed in m/s (hover to see current wind gust speed)